Location: Stanford
(52.2833°N, 2.4333°W)
Time: 22:02:54
(UTC+00:00)

CSL-04 Debris - Pass Details

Date: 22 January 2021
Orbit: 827 x 847 km, 98.9° (Epoch: 01 March)

Event Time Altitude Azimuth Distance (km) Brightness Sun altitude
Rises 18:50:43 0° 158° (SSE) 3,361 7.2 -19.7°
Reaches altitude 10° 18:53:03 10° 158° (SSE) 2,430 6.4 -20.1°
Maximum altitude 18:58:26 81° 72° (ENE) 845 4.0 -20.9°
Drops below altitude 10° 19:03:51 10° 346° (NNW) 2,445 6.7 -21.7°
Sets 19:06:13 0° 345° (NNW) 3,384 7.5 -22.1°
